GW2746 Weather Reports


time (UTC)temp
C
wind
direction
speed
KPH
gust
KPH
rain 1hr
cm
rain 24hr
cm
rain mn
cm
humidity
%
barometer
mb
20260502152135 11 227 6.4 11.3 0.00 0.00 0.00 47 1021.9
20260502151618 11 210 1.6 11.3 0.00 0.00 0.00 49 1021.9
20260502151120 11 246 4.8 11.3 0.00 0.00 0.00 49 1021.9
20260502150626 11 296 6.4 9.7 0.00 0.00 0.00 48 1021.8
20260502150126 11 273 4.8 9.7 0.00 0.00 0.00 48 1021.9
20260502130621 4 1 1.6 3.2 0.00 0.00 0.00 73 1022.2
20260502130121 3 25 0.0 3.2 0.00 0.00 0.00 75 1022.1
20260502123626 1 25 0.0 0.0 0.00 0.00 0.00 84 1022.1
20260502123123 1 25 0.0 0.0 0.00 0.00 0.00 86 1022.1
20260502122626 1 25 0.0 0.0 0.00 0.00 0.00 87 1022.1
20260502122125 1 25 0.0 0.0 0.00 0.00 0.00 88 1022.0
20260502121627 0 25 0.0 0.0 0.00 0.00 0.00 88 1022.0
20260502121125 0 25 0.0 0.0 0.00 0.00 0.00 88 1022.0
20260502120634 0 25 0.0 0.0 0.00 0.00 0.00 89 1022.0
20260502120132 0 25 0.0 0.0 0.00 0.00 0.00 89 1022.0
20260502115636 0 25 0.0 0.0 0.00 0.00 0.00 88 1022.0
20260502115154 0 25 0.0 0.0 0.00 0.00 0.00 88 1021.9
20260502114620 0 25 0.0 0.0 0.00 0.00 0.00 88 1021.8
20260502114118 0 25 0.0 0.0 0.00 0.00 0.00 87 1021.9
20260502113624 0 25 0.0 0.0 0.00 0.00 0.00 87 1021.8
20260502113142 0 25 0.0 0.0 0.00 0.00 0.00 88 1021.9
20260502112625 0 25 0.0 0.0 0.00 0.00 0.00 87 1021.8
20260502112125 0 25 0.0 0.0 0.00 0.00 0.00 87 1021.8
20260502111629 0 25 0.0 0.0 0.00 0.00 0.00 86 1021.7
20260502111127 0 25 0.0 0.0 0.00 0.00 0.00 86 1021.7
20260502110633 0 25 0.0 0.0 0.00 0.00 0.00 86 1021.7
20260502110132 0 25 0.0 0.0 0.00 0.00 0.00 87 1021.7
20260502105619 0 25 0.0 0.0 0.00 0.00 0.00 86 1021.7
20260502105118 0 25 0.0 0.0 0.00 0.00 0.00 85 1021.7
20260502104642 0 25 0.0 0.0 0.00 0.00 0.00 85 1021.6
20260502104119 0 25 0.0 0.0 0.00 0.00 0.00 84 1021.6
20260502103643 0 25 0.0 0.0 0.00 0.00 0.00 84 1021.6
20260502103120 0 25 0.0 0.0 0.00 0.00 0.00 84 1021.6
20260502102625 0 25 0.0 0.0 0.00 0.00 0.00 83 1021.5
20260502102124 1 25 0.0 0.0 0.00 0.00 0.00 83 1021.6
20260502101627 1 25 0.0 0.0 0.00 0.00 0.00 83 1021.5
20260502101127 1 25 0.0 0.0 0.00 0.00 0.00 83 1021.4
20260502100634 1 25 0.0 0.0 0.00 0.00 0.00 82 1021.4
20260502100119 1 25 0.0 0.0 0.00 0.00 0.00 83 1021.4
20260502091122 2 25 0.0 1.6 0.00 0.00 0.00 79 1021.3
20260502090629 2 25 0.0 1.6 0.00 0.00 0.00 79 1021.2
20260502090148 2 25 0.0 0.0 0.00 0.00 0.00 79 1021.2
20260502071136 2 25 0.0 0.0 0.00 0.00 0.00 75 1021.2
20260502070640 2 25 0.0 0.0 0.00 0.00 0.00 75 1021.2
20260502070122 2 25 0.0 0.0 0.00 0.00 0.00 74 1021.2
20260502065629 2 25 0.0 0.0 0.00 0.00 0.00 74 1021.2
20260502065129 2 25 0.0 0.0 0.00 0.00 0.00 74 1021.2
20260502064630 3 25 0.0 0.0 0.00 0.00 0.00 74 1021.2
20260502064132 3 25 0.0 0.0 0.00 0.00 0.00 74 1021.3
20260502063635 3 25 0.0 0.0 0.00 0.00 0.00 73 1021.3
20260502063132 3 25 0.0 0.0 0.00 0.00 0.00 72 1021.3
20260502062658 3 25 0.0 0.0 0.00 0.00 0.00 72 1021.2
20260502062133 3 25 0.0 0.0 0.00 0.00 0.00 71 1021.2
20260502061636 3 25 0.0 0.0 0.00 0.00 0.00 70 1021.2
20260502061134 3 25 0.0 0.0 0.00 0.00 0.00 70 1021.2
20260502060617 3 25 0.0 0.0 0.00 0.00 0.00 69 1021.1
20260502060118 3 25 0.0 0.0 0.00 0.00 0.00 69 1021.1
20260502055621 3 25 0.0 0.0 0.00 0.00 0.00 69 1021.0
20260502055121 4 25 0.0 0.0 0.00 0.00 0.00 68 1021.0
20260502054625 4 25 0.0 0.0 0.00 0.00 0.00 68 1021.0
20260502054127 4 25 0.0 0.0 0.00 0.00 0.00 67 1020.9
20260502053634 5 25 0.0 0.0 0.00 0.00 0.00 65 1020.9
20260502053157 5 25 0.0 0.0 0.00 0.00 0.00 64 1020.9
20260502052638 5 25 0.0 0.0 0.00 0.00 0.00 63 1020.9
20260502052119 5 25 0.0 0.0 0.00 0.00 0.00 62 1020.9
20260502051622 5 25 0.0 0.0 0.00 0.00 0.00 61 1020.8
20260502051120 6 25 0.0 0.0 0.00 0.00 0.00 61 1020.9
20260502050625 6 25 0.0 0.0 0.00 0.00 0.00 60 1020.8
20260502050131 6 25 0.0 0.0 0.00 0.00 0.00 60 1020.8
20260502045628 6 25 0.0 0.0 0.00 0.00 0.00 59 1020.7
20260502045128 6 25 0.0 0.0 0.00 0.00 0.00 59 1020.7
20260502044631 6 25 0.0 0.0 0.00 0.00 0.00 59 1020.7
20260502044129 6 25 0.0 0.0 0.00 0.00 0.00 59 1020.6
20260502043632 6 25 0.0 0.0 0.00 0.00 0.00 58 1020.7
20260502043131 6 25 0.0 0.0 0.00 0.00 0.00 58 1020.6
20260502042636 6 25 0.0 0.0 0.00 0.00 0.00 58 1020.7
20260502042134 6 25 0.0 0.0 0.00 0.00 0.00 58 1020.7
20260502041618 6 25 0.0 0.0 0.00 0.00 0.00 57 1020.7
20260502041117 7 25 0.0 0.0 0.00 0.00 0.00 57 1020.6
20260502040624 7 25 0.0 0.0 0.00 0.00 0.00 56 1020.5
20260502040125 7 25 0.0 1.6 0.00 0.00 0.00 55 1020.6
20260502035648 7 25 0.0 1.6 0.00 0.00 0.00 54 1020.5
20260502035125 7 25 0.0 0.0 0.00 0.00 0.00 53 1020.5
20260502034630 7 25 0.0 0.0 0.00 0.00 0.00 53 1020.5
20260502034129 7 25 0.0 0.0 0.00 0.00 0.00 52 1020.6
20260502033619 7 25 0.0 0.0 0.00 0.00 0.00 51 1020.5
20260502033120 8 25 0.0 0.0 0.00 0.00 0.00 50 1020.5
20260502032623 8 25 0.0 1.6 0.00 0.00 0.00 49 1020.5
20260502032121 8 25 0.0 4.8 0.00 0.00 0.00 48 1020.5
20260502031625 8 25 0.0 4.8 0.00 0.00 0.00 47 1020.4
20260502031123 8 44 0.0 1.6 0.00 0.00 0.00 48 1020.4
20260502030627 8 44 0.0 1.6 0.00 0.00 0.00 47 1020.3
20260502030130 8 44 0.0 4.8 0.00 0.00 0.00 47 1020.3
20260502025617 8 44 0.0 4.8 0.00 0.00 0.00 46 1020.2
20260502025154 8 42 0.0 4.8 0.00 0.00 0.00 46 1020.2
20260502024618 9 49 1.6 6.4 0.00 0.00 0.00 46 1020.1
20260502024138 9 357 1.6 6.4 0.00 0.00 0.00 46 1020.0
20260502023624 9 65 0.0 3.2 0.00 0.00 0.00 46 1020.0
20260502023125 9 65 0.0 4.8 0.00 0.00 0.00 45 1019.9
20260502022630 9 65 1.6 4.8 0.00 0.00 0.00 44 1019.9
20260502022129 9 45 0.0 3.2 0.00 0.00 0.00 45 1019.9
20260502021636 10 31 0.0 3.2 0.00 0.00 0.00 45 1019.8
20260502021134 10 31 0.0 4.8 0.00 0.00 0.00 44 1019.7
20260502020617 10 31 1.6 6.4 0.00 0.00 0.00 43 1019.7
20260502020117 10 33 0.0 6.4 0.00 0.00 0.00 43 1019.6
20260502015625 10 72 3.2 4.8 0.00 0.00 0.00 43 1019.6
20260502015141 10 42 0.0 3.2 0.00 0.00 0.00 44 1019.5
20260502014623 10 53 1.6 3.2 0.00 0.00 0.00 43 1019.5
20260502014140 10 53 0.0 6.4 0.00 0.00 0.00 42 1019.4
20260502013622 11 42 1.6 8.0 0.00 0.00 0.00 41 1019.4
20260502013120 11 31 4.8 8.0 0.00 0.00 0.00 41 1019.3
20260502012628 11 45 4.8 8.0 0.00 0.00 0.00 40 1019.3
20260502012126 11 19 1.6 6.4 0.00 0.00 0.00 40 1019.2
20260502011632 11 42 3.2 9.7 0.00 0.00 0.00 40 1019.1
20260502011134 11 42 1.6 9.7 0.00 0.00 0.00 40 1019.0
20260502010658 11 29 1.6 11.3 0.00 0.00 0.00 39 1019.0
20260502010140 11 33 1.6 11.3 0.00 0.00 0.00 39 1019.0
20260502005628 12 40 1.6 8.0 0.00 0.00 0.00 39 1018.9
20260502005150 12 36 4.8 9.7 0.00 0.00 0.00 38 1018.9
20260502004633 12 356 4.8 9.7 0.00 0.00 0.00 38 1018.8
20260502004115 12 14 4.8 11.3 0.00 0.00 0.00 38 1018.8
20260502003624 12 337 4.8 16.1 0.00 0.00 0.00 37 1018.7
20260502003123 12 269 4.8 16.1 0.00 0.00 0.00 38 1018.7
20260502002626 12 24 4.8 17.7 0.00 0.00 0.00 37 1018.6
20260502002126 13 351 4.8 14.5 0.00 0.00 0.00 36 1018.6
20260502001634 13 94 4.8 8.0 0.00 0.00 0.00 36 1018.6
20260502001151 13 32 1.6 14.5 0.00 0.00 0.00 36 1018.6
20260502000634 13 298 4.8 14.5 0.00 0.00 0.00 36 1018.6
20260502000117 13 329 3.2 12.9 0.00 0.00 0.00 37 1018.5
20260501235646 13 70 4.8 12.9 0.00 0.00 0.00 35 1018.5
20260501235122 13 329 4.8 12.9 0.00 0.00 0.00 35 1018.5
20260501234625 13 60 4.8 14.5 0.00 0.00 0.00 35 1018.6
20260501234127 13 71 6.4 14.5 0.00 0.00 0.00 35 1018.5
20260501233635 13 70 8.0 14.5 0.00 0.00 0.00 35 1018.5
20260501233136 13 354 6.4 12.9 0.00 0.00 0.00 35 1018.5
20260501232623 13 307 4.8 14.5 0.00 0.00 0.00 34 1018.5
20260501232123 13 33 4.8 16.1 0.00 0.00 0.00 34 1018.5
20260501231626 14 26 9.7 16.1 0.00 0.00 0.00 34 1018.4
20260501231126 14 350 6.4 14.5 0.00 0.00 0.00 34 1018.4
20260501230633 14 9 3.2 14.5 0.00 0.00 0.00 35 1018.3
20260501230133 14 64 1.6 19.3 0.00 0.00 0.00 36 1018.4
20260501225637 14 310 4.8 19.3 0.00 0.00 0.00 34 1018.3
20260501225137 14 14 6.4 14.5 0.00 0.00 0.00 34 1018.3
20260501224619 14 308 9.7 17.7 0.00 0.00 0.00 34 1018.4
20260501224122 14 2 4.8 12.9 0.00 0.00 0.00 34 1018.3
20260501223631 14 295 4.8 16.1 0.00 0.00 0.00 34 1018.3
20260501223132 14 276 6.4 14.5 0.00 0.00 0.00 33 1018.4
20260501222636 14 312 3.2 14.5 0.00 0.00 0.00 34 1018.3
20260501222120 14 276 6.4 12.9 0.00 0.00 0.00 33 1018.2
20260501221627 14 19 3.2 19.3 0.00 0.00 0.00 34 1018.3
20260501221126 14 27 6.4 19.3 0.00 0.00 0.00 35 1018.3
20260501220629 14 360 9.7 14.5 0.00 0.00 0.00 34 1018.3
20260501220131 14 91 4.8 17.7 0.00 0.00 0.00 34 1018.2
20260501215616 14 58 6.4 17.7 0.00 0.00 0.00 35 1018.2
20260501215119 15 72 6.4 17.7 0.00 0.00 0.00 36 1018.3
20260501214652 14 297 8.0 16.1 0.00 0.00 0.00 35 1018.3
20260501214148 14 318 4.8 19.3 0.00 0.00 0.00 36 1018.2
20260501213650 14 118 9.7 19.3 0.00 0.00 0.00 34 1018.3
20260501213148 14 342 4.8 12.9 0.00 0.00 0.00 36 1018.3
20260501212631 14 19 8.0 19.3 0.00 0.00 0.00 37 1018.3
20260501212129 14 335 11.3 19.3 0.00 0.00 0.00 35 1018.4
20260501211635 14 286 3.2 17.7 0.00 0.00 0.00 36 1018.3
20260501211133 14 270 8.0 17.7 0.00 0.00 0.00 35 1018.4
20260501210657 15 5 6.4 16.1 0.00 0.00 0.00 35 1018.4
20260501210135 14 25 6.4 22.5 0.00 0.00 0.00 37 1018.5
20260501205618 13 266 8.0 22.5 0.00 0.00 0.00 35 1018.5
20260501205135 14 303 4.8 19.3 0.00 0.00 0.00 36 1018.6
20260501204622 14 295 6.4 19.3 0.00 0.00 0.00 36 1018.6
20260501204143 15 360 6.4 22.5 0.00 0.00 0.00 38 1018.6
20260501203626 15 129 9.7 22.5 0.00 0.00 0.00 37 1018.7
20260501203130 15 341 3.2 16.1 0.00 0.00 0.00 39 1018.6
20260501202622 14 19 4.8 16.1 0.00 0.00 0.00 39 1018.5
20260501202122 14 79 4.8 14.5 0.00 0.00 0.00 39 1018.6
20260501201629 15 94 4.8 14.5 0.00 0.00 0.00 38 1018.8
20260501201147 14 289 6.4 19.3 0.00 0.00 0.00 40 1018.7
20260501200630 14 331 3.2 19.3 0.00 0.00 0.00 40 1018.7
20260501200133 13 300 6.4 19.3 0.00 0.00 0.00 39 1018.8
20260501195618 13 320 4.8 14.5 0.00 0.00 0.00 40 1018.8
20260501195117 13 268 6.4 14.5 0.00 0.00 0.00 40 1018.8
20260501194620 14 262 4.8 16.1 0.00 0.00 0.00 41 1018.8
20260501194121 14 14 8.0 16.1 0.00 0.00 0.00 42 1018.9
20260501193624 13 341 6.4 12.9 0.00 0.00 0.00 43 1018.9
20260501193127 13 360 8.0 16.1 0.00 0.00 0.00 43 1018.9
20260501192630 13 41 8.0 16.1 0.00 0.00 0.00 44 1018.9
20260501192148 13 19 4.8 16.1 0.00 0.00 0.00 45 1018.8
20260501191630 13 306 6.4 12.9 0.00 0.00 0.00 46 1018.9
20260501191131 13 9 3.2 12.9 0.00 0.00 0.00 46 1018.8
20260501190636 13 111 4.8 12.9 0.00 0.00 0.00 44 1018.9
20260501190116 14 346 4.8 19.3 0.00 0.00 0.00 45 1018.8
20260501185623 14 307 6.4 19.3 0.00 0.00 0.00 44 1018.8
20260501185121 13 327 6.4 16.1 0.00 0.00 0.00 46 1018.8
20260501184624 13 336 6.4 16.1 0.00 0.00 0.00 45 1018.8
20260501184125 13 131 1.6 12.9 0.00 0.00 0.00 48 1018.8
20260501183628 13 360 8.0 12.9 0.00 0.00 0.00 46 1018.9
20260501183146 13 9 4.8 17.7 0.00 0.00 0.00 47 1018.9
20260501182631 13 105 4.8 17.7 0.00 0.00 0.00 48 1018.9
20260501182128 13 359 8.0 17.7 0.00 0.00 0.00 48 1019.0
20260501181637 12 352 8.0 17.7 0.00 0.00 0.00 50 1019.0
20260501181138 13 325 4.8 16.1 0.00 0.00 0.00 50 1018.9
20260501180623 13 304 4.8 16.1 0.00 0.00 0.00 47 1019.1
20260501180141 13 300 6.4 14.5 0.00 0.00 0.00 49 1019.0
20260501175624 13 56 4.8 17.7 0.00 0.00 0.00 48 1019.0
20260501175125 13 38 6.4 17.7 0.00 0.00 0.00 50 1019.0
20260501174627 12 275 8.0 17.7 0.00 0.00 0.00 52 1019.1
20260501174128 12 290 4.8 17.7 0.00 0.00 0.00 50 1019.1
20260501173620 12 325 4.8 16.1 0.00 0.00 0.00 54 1019.2
20260501173118 12 333 6.4 16.1 0.00 0.00 0.00 53 1019.1
20260501172625 12 58 4.8 17.7 0.00 0.00 0.00 54 1019.1
20260501171636 12 58 4.8 17.7 0.00 0.00 0.00 54 1019.1
20260501171129 12 14 6.4 17.7 0.00 0.00 0.00 55 1019.2
20260501170658 12 14 4.8 14.5 0.00 0.00 0.00 56 1019.1
20260501170158 12 19 6.4 19.3 0.00 0.00 0.00 55 1019.2
20260501165640 12 36 6.4 20.9 0.00 0.00 0.00 58 1019.1
20260501165119 12 71 11.3 20.9 0.00 0.00 0.00 58 1019.3
20260501164626 12 174 4.8 17.7 0.00 0.00 0.00 58 1019.2
20260501164122 12 55 8.0 17.7 0.00 0.00 0.00 58 1019.2
20260501163628 11 123 4.8 17.7 0.00 0.00 0.00 60 1019.2
20260501163125 11 305 6.4 14.5 0.00 0.00 0.00 59 1019.3
20260501162628 11 23 3.2 16.1 0.00 0.00 0.00 61 1019.3
20260501162126 11 353 4.8 22.5 0.00 0.00 0.00 61 1019.3
20260501161627 11 50 9.7 22.5 0.00 0.00 0.00 62 1019.1
20260501161123 11 324 8.0 22.5 0.00 0.00 0.00 62 1019.2
20260501160628 11 281 4.8 19.3 0.00 0.00 0.00 62 1019.1
20260501160132 11 339 9.7 19.3 0.00 0.00 0.00 61 1019.0
20260501155637 11 41 3.2 14.5 0.00 0.00 0.00 62 1019.0
20260501155114 11 284 8.0 17.7 0.00 0.00 0.00 63 1019.0
20260501154645 11 306 9.7 19.3 0.00 0.00 0.00 62 1019.0
20260501154119 11 244 6.4 12.9 0.00 0.00 0.00 63 1018.9
20260501153623 10 331 8.0 14.5 0.00 0.00 0.00 63 1019.0
20260501153122 10 280 9.7 14.5 0.00 0.00 0.00 64 1018.9
20260501152645 10 275 6.4 14.5 0.00 0.00 0.00 64 1018.8